Regional Weather Roundup
Issued by NWS Newport/Morehead, NC

Current Version | Previous Version | Graphics & Text | Print | Product List | Glossary Off
Versions: 1 2 3 4 5 6 7 8 9 10 11 12 13 14 15 16 17 18 19 20 21 22 23 24 25 26 27 28 29 30 31 32 33 34 35 36 37 38 39 40 41 42 43 44 45 46 47 48 49 50

237
ASUS42 KMHX 200825
RWRMHX
WEATHER ROUNDUP FOR EASTERN NORTH CAROLINA
NATIONAL WEATHER SERVICE NEWPORT/MOREHEAD CITY NC
400 AM EDT SUN MAY 20 2018

NOTE: "FAIR" INDICATES FEW OR NO CLOUDS BELOW 12,000 FEET
WITH NO SIGNIFICANT WEATHER AND/OR OBSTRUCTIONS TO VISIBILITY

NCZ015>017-031-032-045>047-102-103-200900-
NORTH COAST

CITY           SKY/WX    TMP DP  RH WIND       PRES   REMARKS
EDENTON        NOT AVBL
ELIZABETH CITY CLOUDY    75  72  90 S14       30.13S
KITTY HAWK     FAIR      74  70  88 SW9       30.13F
MANTEO         FAIR      74  70  87 SW15      30.15S

$$

NCZ045>047-081-094-103-104-200900-
CENTRAL COAST

CITY           SKY/WX    TMP DP  RH WIND       PRES   REMARKS
FRISCO         CLOUDY    72  71  97 SW12      30.16F

$$

NCZ095-097-098-100-101-200900-
SOUTHERN COAST

CITY           SKY/WX    TMP DP  RH WIND       PRES   REMARKS
BEAUFORT       FAIR      74  72  93 S10       30.15F
CEDAR ISLAND   NOT AVBL
JACKSONVILLE   FAIR      73  72  96 S6        30.14S
PINEY ISLAND   NOT AVBL
WILMINGTON     FAIR      73  70  90 S5        30.14S


$$

NCZ011>013-027>030-043-044-078>080-089-090>093-098-200900-
COASTAL PLAIN

CITY           SKY/WX    TMP DP  RH WIND       PRES   REMARKS
AHOSKIE        CLOUDY    70  70 100 S5        30.12S
CLINTON        CLOUDY    69  69 100 CALM      30.13S
ELIZABETHTOWN  MOCLDY    69  68  99 CALM      30.14S
GOLDSBORO      FAIR     N/A N/A N/A CALM      30.12F
GREENVILLE     FAIR      72  72 100 S3        30.14F
HAVELOCK       NOT AVBL
KENANSVILLE    RAIN      72  70  94 S5        30.14S FOG
KINSTON        RAIN      72  71  97 S7        30.14S
NEW BERN       FAIR      72  71  97 S7        30.16S
RICHLANDS      CLOUDY    72  71  97 S7        30.15R
ROCKY MOUNT    CLOUDY    70  69  97 S9        30.12S
WASHINGTON     MOCLDY    73  71  95 CALM      30.14S
WHITEVILLE     FAIR      68  68  98 CALM      30.13S FOG

$$

AMZ130-135-150-152-154-156-158-170-250-252-270-ANZ085-086-088-633-658-670-200900-
MARINE OBSERVATIONS

STATION/POSITION TIME  TEMP    WIND        PRES    WAVE   SWELL
                       AIR SEA DIR/SP/G            HT/PER HT/PER
                 (UTC) (F)     (DEG/KT/KT) (MB)    (FT/S) (FT/S)
CHESAPEAKE LIGHT NOT AVBL
64 E VA BEACH    0750   66 62  200/ 12/ 12 1021.0    6/ 8   5/ 8
DUCK             0800   75 60  200/ 14/ 18 1020.0
2 E DUCK         0800      60                N/A     4/ 6   2/14
OREGON INLET     0754   75 76  200/ 19/ 23 1020.8
13E OREGON INLT  0748      65                N/A     5/ 7   2/14
HATTERAS CG      0800   73 75  200/  5/  9 1021.2
DIAMOND BUOY     0810   77 75  200/ 17/ 21 1021.8
CAPE LOOKOUT     0800          190/ 12/ 14 1021.5
BEAUFORT LAB     0800   75 76  190/ 12/ 14 1021.3
30 SE NEW RVR IN 0808   76     180/ 12/ 16 1021.0
30 SE NEW RVR IN 0800      76                N/A     8/ 8
27 SE WRIGHTSVLE 0808   74 73  190/ 10/ 16 1020.9
5 SE WRIGHTSVLE  NOT AVBL
225 S CAPE HAT   0810      77  160/ 16/ 19 1022.3
41 SE CHARLESTON 0800      74  250/  4/  6 1019.9

$$




USA.gov is the U.S. government's official web portal to all federal, state and local government web resources and services.